Location: Gerlach
(40.6516°N, 119.3568°W)
Time: 05:47:47
(UTC-07:00)

Explorer 11/Cluster Stage 4 - Pass Details

Date: 03 February 2023
Orbit: 466 x 1241 km, 28.8° (Epoch: 02 April)

Event Time Altitude Azimuth Distance (km) Brightness Sun altitude
Exits shadow 03:36:55 17° 153° (SSE) 2,648 9.3 -39.7°
Drops below altitude 10° 03:41:34 10° 118° (ESE) 3,188 10.1 -38.8°
Sets 03:45:45 0° 99° (E) 4,170 11.1 -38.1°
